EW9826 Weather Reports


time (UTC)temp
F
wind
direction
speed
knots
gust
knots
rain 1hr
in
rain 24hr
in
rain mn
in
humidity
%
barometer
mb
20260831034550 64 212 4.3 10.4 0.00 0.46 0.01 88 1007.0
20260831033049 64 207 3.5 7.0 0.00 0.46 0.01 88 1007.1
20260831032548 64 215 2.6 7.8 0.00 0.47 0.01 88 1007.1
20260831032049 64 211 4.3 8.7 0.00 0.47 0.01 88 1007.3
20260831031548 64 222 3.5 8.7 0.00 0.47 0.01 88 1007.3
20260831031049 64 248 4.3 12.2 0.00 0.47 0.01 88 1007.5
20260831030048 64 229 5.2 8.7 0.00 0.47 0.01 88 1007.5
20260831025549 64 182 5.2 7.8 0.00 0.47 0.01 88 1007.6
20260831025050 64 238 3.5 7.8 0.00 0.47 0.01 89 1007.6
20260831024549 64 201 3.5 7.8 0.00 0.47 0.01 89 1007.6
20260831024049 63 197 4.3 7.0 0.00 0.47 0.01 89 1007.6
20260831023549 63 224 2.6 7.8 0.00 0.47 0.01 90 1007.7
20260831023049 63 198 2.6 10.4 0.00 0.47 0.01 90 1007.6
20260831022548 63 206 4.3 7.0 0.00 0.47 0.01 91 1007.6
20260831022049 63 207 2.6 7.0 0.00 0.47 0.01 91 1007.6
20260831021548 63 207 2.6 6.1 0.00 0.47 0.01 92 1007.6
20260831021051 63 208 3.5 6.1 0.00 0.47 0.01 92 1007.6
20260831015049 63 206 2.6 5.2 0.00 0.47 0.01 92 1007.6
20260831014548 63 207 2.6 5.2 0.00 0.47 0.01 92 1007.6
20260831014050 63 207 1.7 4.3 0.00 0.47 0.01 92 1007.6
20260831013548 63 207 1.7 2.6 0.00 0.47 0.01 92 1007.6
20260831013049 63 207 0.9 2.6 0.00 0.47 0.01 92 1007.5
20260831012548 63 207 0.9 2.6 0.00 0.47 0.01 92 1007.6
20260831012049 63 207 2.6 6.1 0.00 0.47 0.01 92 1007.9
20260831011549 63 206 2.6 5.2 0.00 0.47 0.01 92 1008.0
20260831011051 63 206 2.6 6.1 0.00 0.47 0.01 92 1008.0
20260831010049 63 205 1.7 4.3 0.00 0.47 0.01 92 1008.0
20260831005548 63 205 1.7 6.1 0.00 0.47 0.01 92 1007.9
20260831005049 63 205 1.7 5.2 0.00 0.47 0.01 91 1007.9
20260830235548 63 213 0.9 2.6 0.01 0.64 0.01 93 1008.1
20260830235048 64 213 1.7 5.2 0.01 0.66 0.01 93 1008.2
20260830233549 64 212 4.3 6.1 0.01 0.69 0.01 93 1008.5
20260830233048 64 204 2.6 6.1 0.01 0.69 0.01 93 1008.6
20260830231548 64 198 3.5 7.0 0.00 0.69 0.00 94 1008.6
20260830231048 64 236 2.6 7.8 0.00 0.69 0.00 94 1008.6
20260830224549 64 172 1.7 5.2 0.00 0.69 0.00 94 1008.6
20260830223049 63 217 0.0 0.0 0.00 0.69 0.00 94 1008.6
20260830221049 64 217 0.9 1.7 0.00 0.69 0.00 94 1008.9
20260830215049 64 217 0.0 0.9 0.04 0.70 0.70 93 1009.1
20260830214548 64 217 0.9 1.7 0.04 0.70 0.70 93 1009.1
20260830214049 64 217 0.9 2.6 0.04 0.70 0.70 93 1009.1
20260830213548 64 217 0.9 1.7 0.04 0.70 0.70 93 1009.1
20260830212049 64 217 0.9 1.7 0.14 0.72 0.70 93 1009.2
20260830211547 64 217 1.7 2.6 0.25 0.72 0.70 92 1009.4
20260830211049 64 217 0.9 6.1 0.26 0.72 0.70 92 1009.4
20260830210048 64 252 3.5 7.8 0.26 0.73 0.70 92 1009.5
20260830205049 64 271 1.7 2.6 0.22 0.69 0.66 91 1009.6
20260830203049 64 271 3.5 7.0 0.21 0.69 0.65 88 1009.7
20260830201049 68 183 0.9 2.6 0.00 0.47 0.44 80 1009.6
20260830193048 68 222 1.7 2.6 0.00 0.47 0.44 81 1009.6
20260830192548 68 222 0.9 2.6 0.00 0.50 0.44 80 1009.6
20260830192049 68 222 0.9 2.6 0.00 0.55 0.44 81 1009.7
20260830191548 68 222 0.9 2.6 0.00 0.58 0.44 81 1009.6
20260830191049 68 222 0.9 2.6 0.00 0.63 0.44 81 1009.7
20260830190048 68 222 0.9 2.6 0.00 0.72 0.44 81 1009.7
20260830185548 68 222 1.7 2.6 0.00 0.73 0.44 81 1009.7
20260830183049 69 222 0.0 0.0 0.00 0.82 0.44 81 1009.9
20260830182548 69 222 0.0 0.0 0.00 0.83 0.44 81 1010.0
20260830182049 69 222 0.0 0.0 0.00 0.83 0.44 81 1010.0
20260830181548 69 222 0.0 0.0 0.00 0.83 0.44 80 1010.0
20260830175548 69 222 0.0 0.0 0.00 0.84 0.44 79 1010.0
20260830175048 69 222 0.0 0.0 0.00 0.87 0.44 79 1010.1
20260830174548 69 222 0.0 0.0 0.00 0.87 0.44 79 1010.1
20260830174049 70 222 0.0 0.0 0.00 0.87 0.44 78 1010.1
20260830173549 70 222 0.0 0.0 0.00 0.87 0.44 78 1010.2
20260830165548 70 222 1.7 2.6 0.00 0.89 0.44 76 1010.6
20260830163048 70 263 5.2 7.8 0.00 0.90 0.44 75 1010.6
20260830162547 70 244 3.5 6.1 0.00 0.90 0.44 75 1010.6
20260830162048 70 215 2.6 7.8 0.00 0.90 0.44 75 1010.6
20260830161547 70 201 2.6 6.1 0.00 0.90 0.44 75 1010.6
20260830161048 70 258 1.7 7.8 0.00 0.90 0.44 75 1010.7
20260830153547 70 234 4.3 8.7 0.00 0.91 0.44 73 1010.9
20260830152048 70 254 4.3 8.7 0.00 0.91 0.44 72 1011.1
20260830151547 70 263 4.3 10.4 0.00 0.91 0.44 72 1011.1
20260830150048 70 249 5.2 11.3 0.00 0.91 0.44 74 1011.1
20260830145547 70 249 5.2 12.2 0.00 0.91 0.44 75 1011.1
20260830144547 70 257 4.3 8.7 0.00 0.91 0.44 75 1011.2
20260830144049 70 243 5.2 10.4 0.00 0.91 0.44 75 1011.2
20260830143548 70 263 5.2 10.4 0.00 0.91 0.44 75 1011.1
20260830143048 70 242 5.2 8.7 0.00 0.91 0.44 75 1011.2
20260830142547 70 238 4.3 11.3 0.00 0.91 0.44 75 1011.2
20260830142047 70 225 5.2 8.7 0.00 0.91 0.44 76 1011.1
20260830141548 70 243 5.2 10.4 0.00 0.91 0.44 77 1011.1
20260830141048 70 254 3.5 10.4 0.00 0.91 0.44 79 1011.1
20260830134547 69 256 3.5 7.8 0.00 0.91 0.44 82 1011.1
20260830133047 69 255 4.3 10.4 0.00 0.91 0.44 82 1011.2
20260830132548 68 232 4.3 7.8 0.00 0.91 0.44 82 1011.2
20260830132048 69 242 5.2 10.4 0.00 0.91 0.44 82 1011.2
20260830125048 69 245 4.3 8.7 0.00 0.91 0.44 82 1011.1
20260830124547 69 254 5.2 8.7 0.00 0.91 0.44 82 1011.1
20260830124047 69 277 5.2 10.4 0.00 0.91 0.44 82 1011.0
20260830123547 69 315 4.3 11.3 0.00 0.91 0.44 82 1011.0
20260830123048 69 284 4.3 7.8 0.00 0.91 0.44 82 1011.0
20260830121547 69 277 5.2 10.4 0.00 0.91 0.44 83 1010.8
20260830121048 69 260 5.2 12.2 0.00 0.91 0.44 82 1010.8
20260830120047 68 276 7.0 11.3 0.00 0.91 0.44 83 1010.7
20260830115547 68 252 4.3 10.4 0.00 0.91 0.44 84 1010.6
20260830114047 68 280 6.1 10.4 0.00 0.91 0.44 84 1010.6
20260830113547 68 241 6.1 11.3 0.00 0.91 0.44 84 1010.6
20260830113048 68 286 7.8 12.2 0.00 0.91 0.44 84 1010.6
20260830112547 68 284 6.1 13.9 0.00 0.91 0.44 85 1010.6
20260830112048 68 252 4.3 10.4 0.00 0.91 0.44 87 1010.5
20260830105547 67 265 4.3 7.8 0.02 0.91 0.44 91 1010.2
20260830105047 67 268 1.7 11.3 0.05 0.91 0.44 92 1010.1
20260830104547 67 281 4.3 13.9 0.05 0.91 0.44 92 1010.1
20260830104047 67 273 4.3 10.4 0.05 0.91 0.44 93 1010.1
20260830103547 67 244 4.3 11.3 0.05 0.91 0.44 94 1010.1
20260830103048 67 289 4.3 7.0 0.05 0.91 0.44 94 1010.1
20260830102547 66 246 4.3 10.4 0.05 0.91 0.44 94 1010.1
20260830102047 66 255 3.5 8.7 0.05 0.91 0.44 94 1010.0
20260830101547 66 238 4.3 11.3 0.05 0.91 0.44 94 1009.9
20260830101047 65 253 5.2 13.0 0.06 0.91 0.44 94 1009.8
20260830100047 66 265 5.2 13.0 0.06 0.91 0.43 93 1009.7
20260830095547 66 240 6.1 13.9 0.04 0.89 0.42 93 1009.7
20260830095048 66 296 2.6 8.7 0.02 0.87 0.39 94 1009.6
20260830094547 66 298 5.2 11.3 0.02 0.87 0.39 94 1009.5
20260830085547 65 240 6.1 13.0 0.06 0.85 0.38 94 1008.7
20260830084547 65 249 7.0 15.6 0.06 0.85 0.38 94 1008.7
20260830082547 66 238 3.5 7.0 0.06 0.84 0.37 94 1008.6
20260830082048 65 233 6.1 11.3 0.05 0.83 0.36 94 1008.6
20260830081548 65 233 7.0 13.0 0.05 0.83 0.36 94 1008.5
20260830074547 66 252 4.3 11.3 0.02 0.79 0.31 94 1008.1
20260830074047 66 236 6.1 14.8 0.02 0.79 0.31 94 1008.0
20260830073048 65 247 4.3 11.3 0.02 0.79 0.31 94 1007.9
20260830072547 65 206 3.5 8.7 0.02 0.79 0.31 94 1007.8
20260830072048 65 243 2.6 6.1 0.02 0.79 0.31 94 1007.7
20260830064546 65 219 4.3 8.7 0.02 0.77 0.30 95 1007.2
20260830064047 65 210 3.5 7.0 0.03 0.77 0.30 95 1007.1
20260830063547 65 220 2.6 6.1 0.03 0.77 0.30 95 1007.1
20260830063047 65 232 1.7 7.0 0.03 0.77 0.30 95 1007.1
20260830062546 65 250 2.6 7.0 0.03 0.77 0.30 94 1007.0
20260830062047 65 261 2.6 6.1 0.03 0.77 0.30 94 1007.0
20260830054048 65 227 4.3 11.3 0.02 0.74 0.27 94 1006.6
20260830053547 66 216 4.3 11.3 0.02 0.74 0.27 94 1006.5
20260830052546 66 249 4.3 6.1 0.02 0.74 0.27 94 1006.5
20260830052047 66 230 1.7 5.2 0.02 0.74 0.27 94 1006.4
20260830050046 65 233 2.6 7.8 0.00 0.73 0.24 94 1006.1
20260830045547 65 225 3.5 7.8 0.00 0.73 0.24 93 1006.0
20260830040046 65 252 6.1 13.0 0.01 0.74 0.24 93 1005.7
20260830035546 65 211 6.1 12.2 0.01 0.74 0.24 93 1005.6
20260830035047 65 249 6.1 11.3 0.01 0.74 0.24 93 1005.5